TimeCDT,TemperatureF,Dew PointF,Humidity,Sea Level PressureIn,VisibilityMPH,Wind Direction,Wind SpeedMPH,Gust SpeedMPH,PrecipitationIn,Events,Conditions,WindDirDegrees,DateUTC
12:53 AM,32.0,21.9,66,30.33,10.0,Calm,Calm,-,N/A,,Overcast,0,2013-03-28 05:53:00
1:53 AM,28.9,21.9,75,30.33,10.0,WNW,3.5,-,N/A,,Partly Cloudy,300,2013-03-28 06:53:00
2:53 AM,30.9,21.9,69,30.33,10.0,West,3.5,-,N/A,,Clear,280,2013-03-28 07:53:00
3:53 AM,28.9,21.9,75,30.33,10.0,Calm,Calm,-,N/A,,Clear,0,2013-03-28 08:53:00
4:53 AM,28.0,21.0,75,30.33,10.0,West,3.5,-,N/A,,Clear,280,2013-03-28 09:53:00
5:53 AM,27.0,21.0,78,30.34,10.0,West,4.6,-,N/A,,Clear,270,2013-03-28 10:53:00
6:53 AM,27.0,21.0,78,30.36,10.0,West,4.6,-,N/A,,Clear,280,2013-03-28 11:53:00
7:53 AM,33.1,23.0,66,30.36,10.0,WNW,6.9,-,N/A,,Clear,290,2013-03-28 12:53:00
8:53 AM,36.0,24.1,62,30.36,10.0,West,8.1,-,N/A,,Clear,280,2013-03-28 13:53:00
9:53 AM,42.1,21.0,43,30.36,10.0,NNW,6.9,-,N/A,,Clear,330,2013-03-28 14:53:00
10:53 AM,43.0,19.9,40,30.36,10.0,Variable,4.6,-,N/A,,Clear,0,2013-03-28 15:53:00
11:53 AM,46.0,19.9,35,30.36,10.0,North,5.8,-,N/A,,Clear,10,2013-03-28 16:53:00
12:53 PM,46.9,21.9,37,30.35,10.0,WNW,8.1,-,N/A,,Clear,300,2013-03-28 17:53:00
1:53 PM,48.9,19.9,32,30.33,10.0,NW,8.1,-,N/A,,Clear,310,2013-03-28 18:53:00
2:53 PM,50.0,21.0,32,30.31,10.0,NW,9.2,-,N/A,,Clear,310,2013-03-28 19:53:00
3:53 PM,50.0,19.9,31,30.30,10.0,Calm,Calm,-,N/A,,Clear,0,2013-03-28 20:53:00
4:53 PM,50.0,21.0,32,30.29,10.0,North,6.9,-,N/A,,Clear,350,2013-03-28 21:53:00
5:53 PM,46.9,19.9,34,30.30,10.0,NNE,5.8,-,N/A,,Clear,20,2013-03-28 22:53:00
6:53 PM,42.1,23.0,47,30.30,10.0,NE,3.5,-,N/A,,Clear,40,2013-03-28 23:53:00
7:53 PM,39.0,19.9,46,30.31,10.0,Calm,Calm,-,N/A,,Clear,0,2013-03-29 00:53:00
8:53 PM,36.0,21.0,55,30.32,10.0,Calm,Calm,-,N/A,,Clear,0,2013-03-29 01:53:00
9:53 PM,32.0,21.9,66,30.33,10.0,Calm,Calm,-,N/A,,Clear,0,2013-03-29 02:53:00
10:53 PM,33.1,19.9,59,30.33,10.0,NNE,3.5,-,N/A,,Clear,20,2013-03-29 03:53:00
11:53 PM,32.0,19.9,61,30.32,10.0,Calm,Calm,-,N/A,,Clear,0,2013-03-29 04:53:00